Lid_Strength_Index
14 13 13 13 14 14 15 16 16 16 17 17 17 18 18 19 19 19 20 20 20 20 20 20 20 20 20 20 20 20 21 21 23 21 19 19 19 19 18 18 18 18 18
13 14 14 14 14 14 15 16 16 17 17 17 18 18 18 18 19 19 20 20 21 21 21 20 20 20 21 21 21 21 21 21 21 22 20 20 19 19 19 19 18 17 17
14 14 14 15 16 15 14 15 16 17 18 18 18 18 18 19 19 19 19 20 20 20 20 20 21 21 21 21 21 21 20 19 20 21 21 19 19 18 18 17 17 17 16
15 15 15 15 16 15 15 15 16 17 18 18 18 18 18 18 19 19 19 20 21 21 20 20 21 21 21 21 20 20 19 20 20 20 20 20 19 17 17 18 18 17 17
14 15 15 15 15 15 16 16 16 17 17 17 18 18 18 19 19 19 20 20 20 21 20 20 20 20 18 18 19 19 19 20 19 20 19 19 18 18 18 18 18 18 18
15 15 15 16 16 16 16 17 17 17 18 18 18 19 20 19 16 16 18 20 20 20 21 20 20 19 18 16 15 15 16 20 21 20 19 18 18 17 17 18 18 19 20
15 15 15 15 16 16 17 17 17 18 18 19 19 19 19 19 15 15 16 19 20 20 20 19 19 17 18 18 16 15 15 15 14 16 18 18 18 17 17 18 18 18 18
16 16 17 16 16 17 18 18 18 18 19 19 19 19 19 19 14 14 16 19 20 19 18 18 18 18 18 18 18 18 18 16 16 16 16 16 16 15 15 15 16 17 18
16 17 17 17 17 19 19 19 19 18 19 19 19 19 19 19 14 14 15 19 18 18 18 17 17 18 17 16 17 19 18 17 14 13 13 13 13 13 13 16 20 21 22
16 16 18 17 17 19 18 19 18 18 18 18 19 19 19 19 14 14 15 17 18 18 18 17 16 18 17 16 18 21 20 18 17 18 17 15 16 17 16 17 19 22 22
18 18 19 19 19 19 19 19 19 18 19 20 19 20 19 19 16 14 14 17 18 18 18 18 18 16 16 16 16 18 19 16 17 18 20 19 19 18 18 18 18 19 21
19 19 20 19 19 19 19 20 19 19 20 21 21 21 20 19 16 14 14 16 16 19 19 19 18 17 16 16 16 16 16 16 22 22 22 21 20 20 19 18 17 17 17
19 19 19 19 18 17 19 20 20 20 20 21 22 22 22 21 18 14 14 15 16 19 18 18 17 16 17 18 18 18 18 20 22 23 22 21 19 18 18 18 17 17 17
17 18 18 19 18 18 18 18 19 20 20 20 21 21 22 22 20 17 16 16 16 17 16 18 18 19 19 19 21 20 21 21 21 21 21 19 18 19 19 18 20 19 19
16 17 18 19 19 18 18 18 18 18 18 19 19 20 22 22 21 18 17 17 17 18 22 24 23 23 24 23 23 22 22 22 22 21 20 20 20 19 19 19 19 19 20
19 16 17 18 19 19 19 20 15 16 16 15 16 18 19 18 17 16 15 15 16 16 24 25 24 24 24 24 24 24 23 23 22 21 21 20 20 20 20 20 19 20 20
21 20 17 18 18 19 20 20 21 17 15 15 15 16 17 17 16 15 15 15 15 16 25 25 25 24 24 24 24 24 24 23 21 22 21 21 21 21 21 21 20 19 20
22 20 19 17 17 18 19 20 20 20 20 19 15 16 16 16 15 15 15 15 18 23 27 26 26 26 26 26 26 25 25 24 23 22 22 22 23 22 22 21 21 20 19
22 22 19 16 18 18 18 19 20 20 20 19 18 16 16 15 14 14 14 19 24 27 28 28 28 27 27 27 27 28 28 27 25 26 25 24 23 22 21 21 20 20 19
22 22 20 17 19 19 20 19 20 20 20 19 18 18 17 16 16 16 24 23 24 26 27 27 29 29 29 30 31 31 29 29 27 27 25 23 22 21 21 20 20 20 20
22 21 19 16 18 19 19 19 19 19 19 20 19 17 14 16 17 24 24 24 25 26 27 28 29 30 31 32 33 32 31 28 28 27 25 24 22 22 21 19 20 19 19
20 20 18 17 18 18 18 17 17 17 17 18 18 16 12 21 23 24 24 25 26 26 27 28 30 30 30 31 32 32 31 30 29 28 24 23 23 21 19 19 20 20 20
18 18 17 17 17 17 17 16 16 16 17 18 17 16 21 21 22 24 25 26 27 29 31 31 31 32 31 32 32 32 32 29 28 27 25 24 22 20 20 20 20 21 21
18 17 18 19 18 18 18 18 18 18 20 19 17 21 22 23 24 26 26 27 29 30 31 32 32 31 31 31 32 32 30 30 28 27 25 23 20 19 20 21 20 20 21
20 20 20 19 19 20 20 20 21 21 19 20 23 24 25 25 26 27 27 28 29 29 30 30 30 30 30 30 30 30 30 26 26 24 21 18 21 21 21 21 21 21 21
22 22 21 21 22 22 22 22 21 21 23 24 24 25 25 25 26 27 28 28 28 28 28 29 29 29 29 30 30 28 24 20 20 18 15 18 22 20 21 22 21 21 21